Location: Gensac
(43.2177°N, 1.1313°E)
Time: 23:31:37
(UTC+00:00)

CZ-4 R/B - Pass Details

Date: 08 December 2025
Orbit: 675 x 744 km, 98.7° (Epoch: 19 January)

Event Time Altitude Azimuth Distance (km) Brightness Sun altitude
Rises 05:10:07 0° 13° (NNE) 3,057 7.1 -21.9°
Reaches altitude 10° 05:12:22 10° 13° (NNE) 2,131 6.3 -21.5°
Maximum altitude 05:17:01 84° 285° (WNW) 686 3.6 -20.7°
Drops below altitude 10° 05:21:36 10° 198° (SSW) 2,103 6.2 -19.9°
Sets 05:23:49 0° 197° (SSW) 3,013 7.0 -19.5°
